Location: Gensac
(43.2177°N, 1.1313°E)
Time: 01:22:28
(UTC+00:00)

Cosmos 1933 - Pass Details

Date: 08 December 2025
Orbit: 510 x 517 km, 82.5° (Epoch: 17 January)

Event Time Altitude Azimuth Distance (km) Brightness Sun altitude
Exits shadow 05:29:26 39° 242° (WSW) 778 3.7 -18.5°
Drops below altitude 10° 05:32:27 10° 196° (SSW) 1,725 5.8 -18.0°
Sets 05:34:37 0° 189° (S) 2,604 6.9 -17.6°
